Regional Weather Roundup
Issued by NWS Little Rock, AR

Home | Current Version | Previous Version | Text Only | Print | Product List | Glossary Off
Versions: 1 2 3 4 5 6 7 8 9 10 11 12 13 14 15 16 17 18 19 20 21 22 23 24 25 26 27 28 29 30 31 32 33 34 35 36 37 38 39 40 41 42 43 44 45 46 47 48 49 50

000
ASUS44 KLZK 261705
RWRLZK

WEATHER ROUNDUP FOR ARKANSAS
NATIONAL WEATHER SERVICE LITTLE ROCK AR
1100 AM CST THU FEB 26 2015

NOTE: "FAIR" INDICATES FEW OR NO CLOUDS BELOW 12,000 FEET WITH NO
SIGNIFICANT WEATHER AND/OR OBSTRUCTIONS TO VISIBILITY.

ARZ001-003-010-029-261800-
NORTHWEST ARKANSAS

CITY           SKY/WX    TMP DP  RH WIND       PRES   REMARKS
FAYETTEVILLE   CLOUDY    23  13  65 N14       30.29R WCI  11
FORT SMITH     CLOUDY    30  16  56 NW14G25   30.32R WCI  19
HARRISON       CLOUDY    22  14  71 NW14G22   30.23R WCI   9
BENTONVILLE    PTSUNNY   21  10  63 N15G24    30.31R WCI   8
ROGERS         FLURRIES  20  10  65 N13G21    30.30R WCI   7
SILOAM SPGS    CLOUDY    21   7  53 N17       30.33R WCI   7
HIGHFILL       CLOUDY    22  10  60 N17       30.30R WCI   8
SPRINGDALE     CLOUDY    21  10  63 NE16G28   30.30R WCI   7
$$

ARZ004-005-016-261800-
NORTH CENTRAL ARKANSAS

CITY           SKY/WX    TMP DP  RH WIND       PRES   REMARKS
BATESVILLE     CLOUDY    32  19  59 NW9G22    30.19R WCI  24
FLIPPIN        CLOUDY    25  12  58 NW16G23   30.24R WCI  12
MTN HOME       CLOUDY    23  14  68 NW10G21   30.23R WCI  12
$$

ARZ040-041-261800-
WEST CENTRAL ARKANSAS

CITY           SKY/WX    TMP DP  RH WIND       PRES   REMARKS
MENA           PTSUNNY   32  23  69 N13G21    30.22R WCI  22
MOUNT IDA      CLOUDY    33  22  63 N8G18     30.18R WCI  26
$$

ARZ009-017-025-026-028-261800-
NORTHEAST ARKANSAS

CITY           SKY/WX    TMP DP  RH WIND       PRES   REMARKS
CORNING        CLOUDY    30  25  80 NW20      30.16R WCI  18
JONESBORO      CLOUDY    32  26  78 NW15G23   30.15R WCI  22
NEWPORT        CLOUDY    31  24  75 NW20      30.19R WCI  19
WALNUT RIDGE   CLOUDY    30  21  69 N18       30.17R WCI  18
BLYTHEVILLE    CLOUDY    36  30  79 N16       30.12R
NW BLYTHEVILLE CLOUDY    36  30  80 N9        30.12R
$$

ARZ022-023-033-042-044-261800-
CENTRAL ARKANSAS

CITY           SKY/WX    TMP DP  RH WIND       PRES   REMARKS
LITTLE ROCK    CLOUDY    34  24  67 N18G26    30.21R WCI  23
N LITTLE ROCK  CLOUDY    31  27  84 N14G23    30.21R WCI  21
JACKSONVILLE   CLOUDY    33  24  69 NW13G22   30.20R WCI  24
SEARCY         CLOUDY    33  24  69 NW14      30.21R WCI  23
HOT SPRINGS    CLOUDY    34  26  72 N8        30.20R WCI  27
RUSSELLVILLE   CLOUDY    34  21  59 NW12      30.23R WCI  25
CLINTON        CLOUDY    28  19  69 NW9G17    30.25R WCI  20
$$

ARZ036-261800-
EAST ARKANSAS

CITY           SKY/WX    TMP DP  RH WIND       PRES   REMARKS
WEST MEMPHIS   CLOUDY    35  31  85 N10G17    30.13R WCI  27
$$

ARZ050-053-066-070-073-261800-
SOUTHWEST ARKANSAS

CITY           SKY/WX    TMP DP  RH WIND       PRES   REMARKS
ARKADELPHIA    CLOUDY    36  33  88 N12       30.21R
CAMDEN         PTSUNNY   37  30  75 MISG      30.21R HAZE
TEXARKANA      CLOUDY    36  29  75 NW10      30.21R
EL DORADO      CLOUDY    36  32  85 N8        30.19R
DE QUEEN       MOSUNNY   34  24  67 N12G22    30.22R WCI  25
$$

ARZ056-057-069-261800-
SOUTHEAST ARKANSAS

CITY           SKY/WX    TMP DP  RH WIND       PRES   REMARKS
PINE BLUFF     CLOUDY    32  29  88 N14       30.19R WCI  22
STUTTGART      CLOUDY    34  30  86 N8        30.19R WCI  27
MONTICELLO     CLOUDY    35  32  88 VRB5      30.17R WCI  31

$$




USA.gov is the U.S. government's official web portal to all federal, state and local government web resources and services.